Location: New Plymouth
(39.0670°S, 174.0830°E)
Time: 16:20:35
(UTC+12:00)

NOAA 19 - Pass Details

Date: 23 August 2019
Orbit: 840 x 862 km, 99.2° (Epoch: 19 September)

Event Time Altitude Azimuth Distance (km) Brightness Sun altitude
Rises 18:36:37 0° 175° (S) 3,459 8.3 -9.2°
Reaches altitude 10° 18:39:08 10° 182° (S) 2,519 7.6 -9.7°
Maximum altitude 18:44:15 38° 248° (WSW) 1,306 6.8 -10.6°
Drops below altitude 10° 18:49:19 10° 314° (NW) 2,502 8.5 -11.6°
Sets 18:51:50 0° 322° (NW) 3,433 9.1 -12.1°
